Overview Statistics Trail Chart Weather Telemetry Raw packets
 

This is the latest recevied weather packets stored in our database for station/object G4KVI. If no packets are shown the sender has not sent any weather packets the latest 10 day(s).

<< 6 7 8 9 10 11 12 >>
Time Temp. Humidity Pressure Rain* Wind** Luminosity Snow
1788549304 15.56° C 77% 1020.9 hPa 0 mm - 0 W/m² -
1788549005 15.56° C 77% 1020.8 hPa 0 mm - 0 W/m² -
1788548704 15.56° C 76% 1020.7 hPa 0 mm - 0 W/m² -
1788548404 15.56° C 76% 1020.7 hPa 0 mm - 1 W/m² -
1788548104 16.11° C 75% 1020.7 hPa 0 mm - 2 W/m² -
1788547804 16.11° C 75% 1020.7 hPa 0 mm - 3 W/m² -
1788547504 16.11° C 75% 1020.7 hPa 0 mm - 5 W/m² -
1788547204 16.11° C 74% 1020.6 hPa 0 mm - 8 W/m² -
1788546904 16.11° C 74% 1020.6 hPa 0 mm - 10 W/m² -
1788546604 16.67° C 74% 1020.4 hPa 0 mm - 13 W/m² -
1788546304 16.67° C 74% 1020.5 hPa 0 mm - 22 W/m² -
1788546004 16.67° C 74% 1020.5 hPa 0 mm - 21 W/m² -
1788545704 16.67° C 74% 1020.3 hPa 0 mm - 26 W/m² -
1788545404 16.67° C 73% 1020.5 hPa 0 mm - 31 W/m² -
1788545104 16.67° C 73% 1020.1 hPa 0 mm - 51 W/m² -
1788544804 16.67° C 73% 1020.2 hPa 0 mm - 60 W/m² -
1788544504 16.67° C 73% 1020.1 hPa 0 mm - 69 W/m² -
1788544204 16.67° C 72% 1020.1 hPa 0 mm - 68 W/m² -
1788543904 16.67° C 73% 1020.1 hPa 0 mm - 66 W/m² -
1788543604 16.67° C 73% 1019.9 hPa 0 mm - 63 W/m² -
1788543304 16.67° C 73% 1019.7 hPa 0 mm - 48 W/m² -
1788543004 16.67° C 72% 1019.8 hPa 0 mm - 46 W/m² -
1788542704 16.67° C 73% 1020.2 hPa 0 mm - 42 W/m² -
1788542404 16.67° C 73% 1020.1 hPa 0 mm - 40 W/m² -
1788542104 16.67° C 74% 1019.9 hPa 0 mm - 41 W/m² -

* Rain latest hour (hover to see other rain measurements)
** Current wind speed in m/s (hover to see current wind gust speed)